TimeAST,TemperatureF,Dew PointF,Humidity,Sea Level PressureIn,VisibilityMPH,Wind Direction,Wind SpeedMPH,Gust SpeedMPH,PrecipitationIn,Events,Conditions,WindDirDegrees,DateUTC
12:53 AM,80.1,78.1,94,29.99,10.0,ENE,3.5,-,N/A,,Clear,70,2013-08-28 04:53:00
1:53 AM,80.1,77.0,90,29.97,10.0,East,5.8,-,N/A,,Clear,90,2013-08-28 05:53:00
2:53 AM,79.0,77.0,94,29.96,10.0,East,4.6,-,N/A,,Clear,90,2013-08-28 06:53:00
3:53 AM,80.1,77.0,90,29.95,10.0,East,5.8,-,N/A,,Clear,90,2013-08-28 07:53:00
4:53 AM,80.1,77.0,90,29.96,10.0,East,6.9,-,N/A,,Clear,90,2013-08-28 08:53:00
5:53 AM,80.1,77.0,90,29.97,10.0,East,6.9,-,N/A,,Clear,90,2013-08-28 09:53:00
6:53 AM,81.0,75.0,82,29.99,10.0,East,9.2,-,N/A,,Partly Cloudy,90,2013-08-28 10:53:00
7:53 AM,84.0,77.0,79,30.01,10.0,East,11.5,-,N/A,,Clear,80,2013-08-28 11:53:00
8:53 AM,84.9,75.0,72,30.02,10.0,East,12.7,-,0.00,,Clear,100,2013-08-28 12:53:00
9:53 AM,87.1,77.0,72,30.03,10.0,East,11.5,19.6,N/A,,Clear,100,2013-08-28 13:53:00
10:53 AM,86.0,77.0,74,30.02,10.0,East,11.5,-,N/A,,Mostly Cloudy,90,2013-08-28 14:53:00
11:02 AM,86.0,77.0,74,30.02,10.0,ESE,8.1,-,N/A,,Overcast,120,2013-08-28 15:02:00
11:53 AM,89.1,75.0,63,30.02,10.0,SE,13.8,20.7,N/A,,Mostly Cloudy,130,2013-08-28 15:53:00
12:02 PM,87.8,75.2,66,30.01,10.0,SE,16.1,25.3,N/A,,Scattered Clouds,130,2013-08-28 16:02:00
12:53 PM,88.0,77.0,70,30.00,10.0,SE,13.8,-,N/A,,Clear,140,2013-08-28 16:53:00
1:53 PM,89.1,78.1,70,29.99,10.0,SSE,12.7,-,N/A,,Scattered Clouds,150,2013-08-28 17:53:00
2:53 PM,88.0,77.0,70,29.97,10.0,SE,8.1,20.7,N/A,,Scattered Clouds,140,2013-08-28 18:53:00
3:53 PM,87.1,72.0,61,29.96,10.0,SE,15.0,23.0,N/A,,Partly Cloudy,130,2013-08-28 19:53:00
4:53 PM,86.0,73.9,67,29.96,10.0,ESE,11.5,-,N/A,,Clear,110,2013-08-28 20:53:00
5:53 PM,84.9,75.9,74,29.97,10.0,East,10.4,-,N/A,,Clear,100,2013-08-28 21:53:00
6:53 PM,84.0,78.1,82,29.99,10.0,East,8.1,-,N/A,,Clear,90,2013-08-28 22:53:00
7:53 PM,82.9,78.1,85,30.01,10.0,East,9.2,-,N/A,,Partly Cloudy,80,2013-08-28 23:53:00
8:53 PM,82.9,75.0,77,30.03,10.0,East,10.4,-,N/A,,Clear,100,2013-08-29 00:53:00
9:53 PM,82.0,77.0,85,30.04,10.0,East,8.1,-,N/A,,Partly Cloudy,90,2013-08-29 01:53:00
10:53 PM,82.0,75.9,82,30.04,10.0,East,6.9,-,N/A,,Clear,90,2013-08-29 02:53:00
11:53 PM,81.0,75.9,85,30.03,10.0,East,5.8,-,N/A,,Clear,90,2013-08-29 03:53:00